DW7048 Weather Reports


Display with metric or nautical units.
time (UTC)temp
F
wind
direction
speed
MPH
gust
MPH
rain 1hr
in
rain 24hr
in
rain mn
in
humidity
%
barometer
mb
20220704020050 78 39 0.0 2.0 0.00 0.00 0.00 65 1015.2
20220704014547 78 39 1.0 2.0 0.00 0.00 0.00 64 1015.1
20220704013047 80 300 0.0 3.0 0.00 0.00 0.00 64 1015.2
20220704011545 80 291 2.0 4.0 0.00 0.00 0.00 64 1015.2
20220704010100 80 271 1.0 8.0 0.00 0.00 0.00 64 1015.2
20220704004544 80 291 4.0 9.0 0.00 0.00 0.00 66 1015.2
20220704003042 79 160 0.0 3.0 0.00 0.00 0.00 59 1015.3
20220704001541 79 165 0.0 2.0 0.00 0.00 0.00 59 1015.4
20220704000041 79 166 1.0 4.0 0.00 0.00 0.00 59 1015.3
20220703234540 80 156 0.0 3.0 0.00 0.00 0.00 60 1015.3
20220703233045 80 156 1.0 4.0 0.00 0.00 0.00 60 1015.2
20220703231537 79 138 0.0 3.0 0.00 0.00 0.00 61 1015.1
20220703230038 79 149 0.0 3.0 0.00 0.00 0.00 65 1015.2
20220703224541 79 107 1.0 2.0 0.00 0.00 0.00 63 1015.3
20220703223032 79 91 0.0 2.0 0.00 0.00 0.00 61 1015.2
20220703221530 79 87 1.0 2.0 0.00 0.00 0.00 60 1015.2
20220703220029 80 87 0.0 2.0 0.00 0.00 0.00 59 1015.3
20220703214530 80 104 1.0 2.0 0.00 0.00 0.00 59 1015.3
20220703213027 80 85 3.0 6.0 0.00 0.00 0.00 58 1015.3
20220703211524 81 110 2.0 3.0 0.00 0.00 0.00 56 1015.4
20220703210021 81 82 2.0 4.0 0.00 0.00 0.00 56 1015.3
20220703204521 81 132 5.0 7.0 0.00 0.00 0.00 60 1015.2
20220703203020 81 165 1.0 6.0 0.00 0.00 0.00 59 1015.3
20220703201519 81 162 3.0 5.0 0.00 0.00 0.00 58 1015.3
20220703200019 82 143 0.0 3.0 0.00 0.00 0.00 59 1015.3
20220703194519 83 115 0.0 3.0 0.00 0.00 0.00 52 1015.1
20220703193017 84 89 1.0 5.0 0.00 0.00 0.00 50 1015.1
20220703191516 84 80 2.0 5.0 0.00 0.00 0.00 48 1015.0
20220703190021 84 103 2.0 6.0 0.00 0.00 0.00 48 1014.8
20220703184516 85 102 3.0 7.0 0.00 0.00 0.00 50 1014.7
20220703183018 85 116 5.0 8.0 0.00 0.00 0.00 48 1014.7
20220703181517 86 116 3.0 6.0 0.00 0.00 0.00 46 1014.5
20220703180014 86 114 3.0 8.0 0.00 0.00 0.00 47 1014.4
20220703174522 87 127 4.0 7.0 0.00 0.00 0.00 46 1014.5
20220703173113 87 125 3.0 8.0 0.00 0.00 0.00 46 1014.6
20220703171511 88 149 7.0 10.0 0.00 0.00 0.00 46 1014.6
20220703170011 89 177 3.0 8.0 0.00 0.00 0.00 47 1014.6
20220703164511 89 190 5.0 9.0 0.00 0.00 0.00 47 1014.5
20220703163013 90 186 5.0 8.0 0.00 0.00 0.00 47 1014.6
20220703161515 90 194 3.0 10.0 0.00 0.00 0.00 52 1014.5
20220703160006 90 153 2.0 8.0 0.00 0.00 0.00 50 1014.5
20220703154505 90 208 3.0 6.0 0.00 0.00 0.00 54 1014.4
20220703153003 90 242 3.0 7.0 0.00 0.00 0.00 52 1014.6
20220703151601 90 229 5.0 8.0 0.00 0.00 0.00 52 1014.8
20220703150100 90 191 4.0 8.0 0.00 0.00 0.00 53 1014.8
20220703144558 90 224 4.0 9.0 0.00 0.00 0.00 53 1014.9
20220703143056 90 162 3.0 7.0 0.00 0.00 0.00 53 1015.2
20220703141555 90 208 4.0 9.0 0.00 0.00 0.00 54 1015.2
20220703140057 90 212 5.0 9.0 0.00 0.00 0.00 53 1015.2
20220703134558 90 191 3.0 7.0 0.00 0.00 0.00 56 1015.1
20220703133052 90 205 4.0 9.0 0.00 0.00 0.00 56 1015.2
20220703131538 90 229 3.0 11.0 0.00 0.00 0.00 55 1015.3
20220703130026 90 225 5.0 9.0 0.00 0.00 0.00 55 1015.3
20220703124523 89 245 4.0 8.0 0.00 0.00 0.00 55 1015.4
20220703123022 87 246 3.0 13.0 0.00 0.00 0.00 61 1015.6
20220703121521 87 271 6.0 10.0 0.00 0.00 0.00 58 1015.6
20220703120022 87 264 6.0 8.0 0.00 0.00 0.00 57 1015.8
20220703114517 87 260 5.0 7.0 0.00 0.00 0.00 59 1016.1
20220703113015 88 255 5.0 8.0 0.00 0.00 0.00 56 1016.2
20220703111524 89 269 2.0 5.0 0.00 0.00 0.00 57 1016.4
20220703110010 88 232 1.0 7.0 0.00 0.00 0.00 62 1016.5
20220703104509 88 9 2.0 7.0 0.00 0.00 0.00 62 1016.8
20220703103006 87 255 3.0 6.0 0.00 0.00 0.00 63 1016.8
20220703101503 86 235 5.0 9.0 0.00 0.00 0.00 63 1017.0
20220703100009 86 177 4.0 8.0 0.00 0.00 0.00 65 1017.1
20220703094600 86 255 3.0 7.0 0.00 0.00 0.00 66 1017.3
20220703093059 85 263 4.0 8.0 0.00 0.00 0.00 67 1017.5
20220703091554 84 267 5.0 8.0 0.00 0.00 0.00 66 1017.6
20220703090056 84 246 5.0 8.0 0.00 0.00 0.00 65 1017.8
20220703084559 83 255 5.0 10.0 0.00 0.00 0.00 66 1017.8
20220703083056 83 242 6.0 8.0 0.00 0.00 0.00 68 1017.8
20220703081548 83 266 5.0 9.0 0.00 0.00 0.00 68 1017.9
20220703080047 82 225 5.0 9.0 0.00 0.00 0.00 68 1018.0
20220703074550 82 277 5.0 8.0 0.00 0.00 0.00 67 1018.0
20220703073101 82 291 5.0 10.0 0.00 0.00 0.00 68 1018.2
20220703071545 82 257 4.0 8.0 0.00 0.00 0.00 67 1018.2
20220703070041 82 295 4.0 8.0 0.00 0.00 0.00 65 1018.3
20220703064547 81 312 4.0 8.0 0.00 0.00 0.00 65 1018.4
20220703063038 81 259 3.0 6.0 0.00 0.00 0.00 67 1018.4
20220703061541 81 269 3.0 5.0 0.00 0.00 0.00 71 1018.5
20220703060037 81 262 0.0 2.0 0.00 0.00 0.00 71 1018.5
20220703054536 80 262 0.0 2.0 0.00 0.00 0.00 73 1018.4
20220703053035 80 262 0.0 2.0 0.00 0.00 0.00 73 1018.3
20220703051533 79 261 0.0 2.0 0.00 0.00 0.00 74 1018.2
20220703050035 79 262 0.0 2.0 0.00 0.00 0.00 75 1018.2
20220703044536 78 262 0.0 1.0 0.00 0.00 0.00 73 1018.1
20220703043031 77 262 0.0 1.0 0.00 0.00 0.00 76 1018.1
20220703041546 77 262 0.0 1.0 0.00 0.00 0.00 78 1018.2
20220703040029 77 262 0.0 2.0 0.00 0.00 0.00 79 1018.1
20220703034527 76 261 0.0 3.0 0.00 0.00 0.00 81 1018.0
20220703033026 76 262 0.0 2.0 0.00 0.00 0.00 82 1017.8
20220703031534 76 261 1.0 3.0 0.00 0.00 0.00 82 1017.7
20220703030023 77 262 2.0 3.0 0.00 0.00 0.00 82 1017.5
20220703024522 77 262 0.0 0.0 0.00 0.00 0.00 80 1017.5
20220703023018 77 262 0.0 0.0 0.00 0.00 0.00 80 1017.2
20220703021513 78 262 0.0 0.0 0.00 0.00 0.00 76 1017.0